Tracking 19636 objects as of 24-May-2019
HD Live streaming from Space Station
objects crossing your sky now

SL-8 R/B

Track SL-8 R/B now!
10-day predictions
SL-8 R/B is classified as:


NORAD ID: 15483
Int'l Code: 1985-006B
Perigee: 763.8 km
Apogee: 792.2 km
Inclination: 74.0 °
Period: 100.3 minutes
Semi major axis: 7148 km
RCS: 4.7342 m2 (large)
Launch date: January 17, 1985
Source: Commonwealth of Independent States (former USSR) (CIS)
Launch site: PLESETSK MISSILE AND SPACE COMPLEX (PKMTR)

Note: This is a ROCKET BODY
aabbcc
Your satellite tracking list
Your tracking list is empty




NASA's NSSDC Master Catalog

Two Line Element Set (TLE):
1 15483U 85006B   19143.36971288  .00000091  00000-0  40063-4 0  9999
2 15483  74.0437 140.9968 0019821 305.7800 155.2644 14.36269915797791
Source of the keplerian elements: AFSPC